This demonstration page uses our WeatherBlox Daily Observations layout. Learn more.

Left ArrowRight Arrow

41.55636, -103.73856

Hourly Observations for July 9, 2015

Temp ( °F °C ) Dew Point ( °F °C ) Humidity (%) Winds ( mph kmh ) Pressure ( in mb ) Visibility ( mi km ) Precip ( " mm )
12:53 am 00:53 Cloudy 59 15 55 12.8 87 87 S 5 7 30 1016 8 12.87472 0 0
1:53 am 01:53 Cloudy 59 15 53 11.7 81 81 SE 5 7 30 1016 9 14.48406 0 0
2:53 am 02:53 Cloudy 58 14.4 53 11.7 84 84 SE 5 7 29.99 1016 8 12.87472 0 0
3:53 am 03:53 Cloudy 58 14.4 55 12.8 90 90 ESE 6 9 29.99 1016 7 11.26538 0 0
4:48 am 04:48 Cloudy with Mist and Fog 57 14 55 13 94 94 ESE 7 11 30 1016 6 9.65604 0 0
4:53 am 04:53 Cloudy with Mist and Fog 58 14.4 55 12.8 90 90 ESE 7 11 30 1016 6 9.65604 0 0
5:34 am 05:34 Cloudy with Mist and Fog 57 14 55 13 94 94 ESE 8 13 30 1016 5 8.0467 0 0
5:53 am 05:53 Cloudy with Mist and Fog 58 14.4 55 12.8 90 90 ESE 9 15 30 1016 5 8.0467 0 0
6:06 am 06:06 Cloudy with Mist and Fog 57 14 55 13 94 94 ESE 8 13 30 1016 4 6.43736 0 0
6:53 am 06:53 Cloudy with Mist and Fog 58 14.4 56 13.3 93 93 ESE 9 15 30.01 1016 4 6.43736 0 0
7:26 am 07:26 Partly Cloudy with Mist and Fog 61 16 55 13 83 83 ESE 7 11 29.97 1015 4 6.43736 0 0
7:39 am 07:39 Partly Cloudy with Mist and Fog 60 15.6 56 13.3 86 86 SSE 6 9 29.97 1015 5 8.0467 0 0
7:53 am 07:53 Mostly Cloudy with Haze 60 15.6 55 12.8 84 84 SE 7 11 30.01 1016 5 8.0467 0 0
8:04 am 08:04 Mostly Cloudy with Mist and Fog 61 16 55 13 83 83 SE 7 11 29.97 1015 5 8.0467 0 0
8:36 am 08:36 Mostly Cloudy with Haze 63 17 55 13 77 77 ESE 7 11 29.94 1014 5 8.0467 0 0
8:53 am 08:53 Cloudy with Haze 61 16.1 55 12.8 81 81 ESE 10 17 30 1016 5 8.0467 0 0
9:53 am 09:53 Cloudy with Haze 62 16.7 55 12.8 78 78 SE 10 17 30 1016 6 9.65604 0 0
10:53 am 10:53 Mostly Cloudy 65 18.3 54 12.2 68 68 SE 6 9 29.98 1015 9 14.48406 0 0
11:53 am 11:53 Mostly Cloudy 70 21.1 56 13.3 61 61 ESE 13 20 29.96 1014 9 14.48406 0 0
12:53 pm 12:53 Partly Cloudy 71 21.7 56 13.3 59 59 SSW 12 19 29.94 1014 10 16.0934 0 0
1:53 pm 13:53 Partly Cloudy 73 22.8 56 13.3 55 55 S 12 19 29.92 1013 10 16.0934 0 0
2:53 pm 14:53 Sunny 75 23.9 56 13.3 52 52 SE 7 11 29.88 1012 10 16.0934 0 0
3:53 pm 15:53 Sunny 77 25 58 14.4 52 52 SSE 12 19 29.86 1011 10 16.0934 0 0
4:53 pm 16:53 Sunny 75 23.9 59 15 58 58 SE 9 15 29.86 1011 10 16.0934 0 0
5:24 pm 17:24 Mostly Cloudy with Light Rain 70 21 63 17 78 78 ESE 10 17 29.77 1008 2.5 4.02335 0 0
5:31 pm 17:31 Mostly Cloudy with Light Rain 70 21.1 63 17.2 79 79 ESE 9 15 29.77 1008 8 12.87472 0.09 2.286
5:53 pm 17:53 Mostly Sunny 70 21.1 64 17.8 82 82 E 8 13 29.85 1011 10 16.0934 0.09 2.286
6:53 pm 18:53 Mostly Sunny 71 21.7 62 16.7 73 73 E 8 13 29.84 1011 10 16.0934 0 0.0254
7:53 pm 19:53 Sunny 70 21.1 62 16.7 76 76 E 8 13 29.85 1011 10 16.0934 0 0
8:53 pm 20:53 Clear 69 20.6 61 16.1 76 76 ESE 10 17 29.86 1011 10 16.0934 0 0
9:53 pm 21:53 Clear 65 18.3 61 16.1 87 87 E 7 11 29.88 1012 10 16.0934 0 0
10:53 pm 22:53 Clear 63 17.2 60 15.6 90 90 E 7 11 29.88 1012 9 14.48406 0 0
11:53 pm 23:53 Clear 63 17.2 60 15.6 90 90 ESE 7 11 29.86 1011 8 12.87472 0 0

Powered by AerisWeather